ARIANE 44LP DEB, 33547

Orbit data source: Space-Track

ARIANE 44LP DEB, 33547 is space debris in HEO originally from a launch on Sun, 11 Dec 1988 UTC launched from the French Guiana (FRGUI). Debris objects in space refer to the collection of defunct objects orbiting the Earth. Examples of debris include non-operational satellites, rocket bodies, and fragments generated from explosions, collisions, or faulty payload assembly.

Loading next visibility...
Identifier
33547, 1988-109W
Orbit
HEO
Country
Flag of FRFR
Related business
Manufacturer
Unknown
Mission
Spacecraft
Bus & Motor
Unknown
Mass
Unknown
Launch date (UTC)
1988-12-11 (37 years ago)
Launch vehicle
Unknown
Launch site
French Guiana (FRGUI)
Object type
Payload
Rocket body
Debris
Shape & HBR
Unknown shape, 0.2 m
Radar Cross Section
Medium (>0.1 m² and <1 m²)

Expand to show TLE details & history
Last TLE update: 12 hours ago

TLE from 12 hours ago
0 ARIANE 44LP DEB
1 33547U 88109W   26035.61258727  .00000696  00000-0  66161-2 0  9995
2 33547   6.8029 272.8149 7060103 347.7811   1.6360  2.40206825221202
Epoch: 2026-02-04T14:42Z
TLE epoch observation values (Epoch: 2026-02-04T14:42:07.540Z)
Latitude
-0.00005°
Longitude
-82.41544°
Altitude
619.516 km
Speed
9.848 km/s
True Right ascension
18h 11m 34s
True Declination
0° 00' 00"
Sunlit
Object was in daylight at epoch
Visualization orbit readout
Latitude
Unknown
Longitude
Unknown
Altitude
Unknown
Speed
Unknown
Apparent Right ascension
Unknown
Apparent Declination
Unknown
Sunlit
N/A
Visualization observer readout
Local Sidereal Time
04:37:37
Azimuth
Unknown
Elevation
Unknown
Doppler factor
Unknown
Orbital elements
Apogee altitude
33,809.139 km
Perigee altitude
547.17 km
Semi-major axis
23,556.292 km
Eccentricity
0.70601
Inclination
6.8029°
RAAN
272.8149°
Arg. of periapsis
347.7811°
True anomaly
13.30557°
Mean anomaly
1.636°
Eccentric anomaly
5.54405°
Mean motion
0.60032 °/min
Orbital period
599.68 mins
BSTAR
0.0066161
Loading maneuver chart data...
Computing Atmospheric mass density...
Loading historical data...
Loading historical data...
Loading historical data...
Loading historical data...
Loading historical data...
Loading historical data...
Loading historical data...

Documentation

Showing up to 5 results
|